Regional Weather Roundup
Issued by NWS Wakefield, VA

Home | Current Version | Previous Version | Text Only | Print | Product List | Glossary On
Versions: 1 2 3 4 5 6 7 8 9 10 11 12 13 14 15 16 17 18 19 20 21 22 23 24 25 26 27
000
ASUS41 KAKQ 170416
RWRAKQ

REGIONAL WEATHER ROUNDUP
NATIONAL WEATHER SERVICE WAKEFIELD VA
1200 AM EDT THU AUG 17 2017

Note: "fair" indicates few or no clouds below 12,000 feet with no
significant weather and/or obstructions to visibility. * = Denotes
station may not report precipitation (e.g., rain,snow,etc.),
thunder or fog.

VAZ042-051-052>054-056-170500-
NORTHERN VIRGINIA

CITY           SKY/WX    TMP DP  RH WIND       PRES   REMARKS
WASH NATIONAL  CLOUDY    81  76  84 SE3       30.03S
DULLES         CLOUDY    75  72  90 CALM      30.04S
FORT BELVOIR   CLOUDY    76  73  87 CALM      30.02F
QUANTICO       CLOUDY    78  76  93 CALM      30.04R
FREDERICKSBRG* CLOUDY    77  77  98 NW6       30.03R
STAFFORD*      CLOUDY    74  74 100 CALM      30.08S
WARRENTON      NOT AVBL
CULPEPER*      MOCLDY    74  72  96 CALM      30.05S
MANASSAS*      PTCLDY    74  70  87 CALM      30.03F
LEESBURG*      CLOUDY    77  73  88 CALM      30.06S
WINCHESTER     CLEAR     70  68  94 CALM      30.05F
FRONT ROYAL*   PTCLDY    72  72 100 CALM      30.05S
LURAY*         CLOUDY    73  72  94 CALM      30.06F
$$

VAZ048-049-060>072-079>083-170500-
CENTRAL AND SOUTH CENTRAL VIRGINIA

CITY           SKY/WX    TMP DP  RH WIND       PRES   REMARKS
RICHMOND       PTCLDY    75  73  93 S5        30.03S
CHESTERFIELD*  FAIR      76  72  87 CALM      30.04S
PETERSBURG*    CLEAR     71  71 100 CALM      30.05S FOG
HANOVER        PTCLDY    74  71  91 CALM      30.04S FOG
TAPPAHANNOCK*  CLEAR     75  75  99 S5        30.04F
QUINTON*       FAIR      73  73 100 CALM      30.04S
CHARLOTTSVILLE CLEAR     75  70  84 N3        30.05S
GORDONSVILLE*  CLEAR     73  73 100 CALM      30.04S FOG
ORANGE*        CLOUDY    72  70  94 CALM      30.04F
LOUISA*        PTCLDY    73  70  88 CALM      30.05R
BUMPASS*       MOCLDY    73  73 100 CALM      30.04S
FARMVILLE*     CLEAR     74  73  94 CALM      30.04S
CREWE*         FAIR      73  68  86 CALM      30.05S
FORT PICKETT*  FAIR      74  71  88 CALM      30.05S
CHASE CITY*    FAIR      73  73  99 CALM      30.05F
CLARKSVILLE*   FAIR      73  73 100 CALM      30.04F
SOUTH HILL*    CLEAR     73  73 100 CALM      30.11S
LAWRENCEVILLE* FAIR      73  72  96 CALM      30.05S
EMPORIA*         N/A     72  72 100 CALM      30.06S
$$

VAZ088>098-170500-
SOUTHEAST VIRGINIA

CITY           SKY/WX    TMP DP  RH WIND       PRES   REMARKS
NORFOLK        CLEAR     75  73  93 S5        30.04S
VIRGINIA BEACH CLEAR     73  70  90 CALM      30.03S
NORFOLK NAVAL  PTCLDY    75  72  90 CALM      30.05S
WEST POINT*    PTCLDY    71  69  95 CALM      30.05S
SALUDA*        FAIR      75  75 100 S5        30.03S
NEWPORT NEWS   CLEAR     73  71  93 CALM      30.04S
LANGLEY AFB    CLEAR     75  74  97 S5        30.04S
FORT EUSTIS    NOT AVBL
WILLIAMSBURG*  CLEAR     75  73  94 CALM      30.05S
HR EXEC AP*    FAIR      70  64  83 CALM      30.02F
FRANKLIN*      CLEAR     71  69  95 CALM      30.05F
US460-WAKEFLD  CLEAR     74  72  93 CALM      30.04F
$$

VAZ020-022-025-037-045-170500-
WEST CENTRAL AND SOUTHWEST VIRGINIA

CITY           SKY/WX    TMP DP  RH WIND       PRES   REMARKS
STAUNTON*      PTCLDY    69  67  94 CALM      30.10S
WAYNESBORO*    CLEAR     72  70  93 CALM      30.09S
HOT SPRINGS VA PTCLDY    70  57  64 CALM      30.22F
LYNCHBURG      CLEAR     72  70  93 CALM      30.07S
DANVILLE       CLOUDY    75  73  93 CALM      30.05F
SOUTH BOSTON*  MOCLDY    74  72  95 CALM      30.05S
MARTINSVILLE   CLOUDY    72  70  93 CALM      30.10S
ROANOKE        PTCLDY    76  69  79 CALM      30.09S
BLACKSBURG     CLEAR     71  68  92 CALM      30.16S
DUBLIN*        MOCLDY    70  69  96 CALM      30.15S
MARION*        HVY RAIN  71  67  85 S3        30.20R
HILLSVILLE*    CLOUDY    70  66  87 CALM      30.16F
RICHLANDS*     MOCLDY    69  63  82 S5        30.16F
WISE*          PTCLDY    68  68 100 CALM      30.17S
ABINGDON*      MOCLDY    73  73 100 CALM      30.15S FOG
$$

MDZ021>025-VAZ099-100-170500-
SOUTHERN MARYLAND AND THE DELMARVA PENINSULA

CITY           SKY/WX    TMP DP  RH WIND       PRES   REMARKS
PATUXENT RIVER MOCLDY    76  74  93 CALM      30.03R
BAY BRIDGE APT CLEAR     75  72  88 E3        30.03S
LEONARDTOWN    CLOUDY    77  72  83 CALM      30.04F
DOVER          CLEAR     73  70  88 SW7       30.01S
GEORGETOWN     MOCLDY    76  71  85 CALM      30.03F
EASTON         CLEAR     73  71  91 CALM      30.07S
CAMBRIDGE      CLOUDY    73  70  88 CALM      30.03S
SALISBURY      CLOUDY    74  71  91 S3        30.03R
OCEAN CITY     CLOUDY    75  73  93 W5        30.04S
WALLOPS ISLAND PTCLDY    74  74 100 SW7       30.04S
ACCOMACK*        N/A     72  71  99 CALM      30.04S FOG
$$

NCZ012>017-030>032-170500-
NORTH CENTRAL AND EASTERN NORTH CAROLINA

CITY           SKY/WX    TMP DP  RH WIND       PRES   REMARKS
ROANOKE RAPIDS FAIR      72  72 100 CALM      30.05S FOG
RALEIGH        CLOUDY    80  73  79 S3        30.05F
ELIZABETH CITY CLEAR     73  73 100 CALM      30.04S FOG
AHOSKIE*         N/A     73  73  99 CALM      30.05S FOG
EDENTON*       CLEAR     76  74  92 CALM      30.05S
CURRITUCK*     CLEAR    N/A N/A N/A CALM      30.05S
KILL DEVIL HLS PTCLDY    74  74 100 CALM      30.03S FOG
MANTEO         MOCLDY    73  72  96 CALM      30.04S
CAPE HATTERAS  CLEAR     75  74  96 CALM      30.03S
TARBORO*       NOT AVBL
GOLDSBORO      CLEAR     79  74  83 CALM      30.04F
WASHINGTON     CLEAR     78  76  93 CALM      30.05R
GREENVILLE     CLEAR     79  77  94 SE5       30.06S
NEW BERN       PTCLDY    78  77  96 SE3       30.05S
WILMINGTON     CLEAR     76  74  93 CALM      30.03F
$$

VAZ048-170500-
ELSEWHERE

CITY           SKY/WX    TMP DP  RH WIND       PRES   REMARKS
HARRISBURG PA  CLEAR     70  67  90 CALM      30.03R
BALTIMORE      PTCLDY    72  71  97 CALM      30.03S
ANNAPOLIS      CLEAR     78  78 100 CALM      30.02S
ANDREWS AFB    CLOUDY    77  74  90 SE6       30.02F
PHILADELPHIA   PTCLDY    76  69  79 CALM      30.02S
HENDERSON NC   CLOUDY    74  70  85 S3        30.05F
GREENSBORO     CLOUDY    78  73  84 S5        30.06F
ROCKY MOUNT    CLEAR     73  73 100 CALM      30.04F FOG
$$

VAZ100-170500-
MARINE

STATION/POSITION TIME  TEMP    WIND        PRES    WAVE   SWELL
                       AIR SEA DIR/SP/G            HT/PER HT/PER
                 (UTC) (F)     (DEG/KT/KT) (MB)    (FT/S) (FT/S)
BRANDYWINE LGT   0336   77     240/  8/  8 1017.0S
CAPE MAY NJ      0336   76 77  210/  3/  4 1016.3R
LEWES DE         0336   75 77  230/  4/  6 1016.5S
15NM E FENWICK I 0350   77 77  210/ 10/ 12 1017.1R   2/ 8   2/ 8
OCEAN-CITY-INLET 0336   78 79  240/  7/  9 1017.3R
WACHAPREAGUE VA  0342   77 84  200/  6/  8 1017.3S
THOMAS POINT MD  0400   80 81  140/  8/  9   N/A
GOOSES REEF MD   0400   80 80  150/ 10/ 12 1017.5
COVE POINT MD    0342   80     140/  5/  7 1017.6S
SOLOMONS ISLAND  0342   80 82  120/  3/  4   N/A
BISHOPS HEAD MD  0342   80 83  200/  5/  7 1017.3R
PINEY POINT MD   0348          200/  8/  9   N/A
POTOMAC MD       0400   79 81  220/ 10/ 12 1016.0    1/ 2
CAMBRIDGE MD     0342   75 83              1017.8S
LEWISETTA VA     0342   78 83  200/  6/  7 1016.7S
RAPPAHANNOCK LGT 0342          180/  9/ 10 1017.8F
STINGRAY PT      0400   79 81  200/ 10/ 12 1017.3    1
YORK RVR RNG VA  0342   79     180/  9/ 10 1017.5S
YORKTOWN VA      0342   77 81  180/  4/  6 1016.9R
JAMESTOWN VA     0400      83  190/  6/  8   N/A
DOMINION TERM VA 0342   78     200/  5/  6 1017.4R
KIPTOPEKE VA     0342      79  150/  4/  5   N/A
CHES BAY BRIDGE  0342   77 79  210/  4/  5 1017.1F
CAPE HENRY VA    0342   75     180/  3/  4   N/A
WILLOUBY STN VA  0342   77     350/  3/  4 1017.3R
S CRANEY ISL VA  0342   78     190/  5/  6 1017.2R
CAPE HENRY BUOY  0400      78                N/A     2/ 7
1ST LANDING BUOY 0400   77 78              1017.2    1
64NM E OF VA BCH 0350   76 77   50/  6/  6 1017.6R   2/ 7   2/ 7
DUCK PIER NC     0342   78 79   30/  3/  3 1016.8S
44100 DUCK FRF   0305      79                N/A     2/ 7
44056 DUCK FRF   0400      79                N/A     2/ 7
OREGON INLET NC  0348           20/  2/  3   N/A
HATTERAS NC      0342   78 83   80/  2/  3 1016.8R
DIAMOND SHLS NC  0350   80 83  360/  6/  8 1016.7R   2/ 8   2/ 8
CAPE LOOKOUT NC  0400   80      CALM  /  1 1016.7F
$$




USA.gov is the U.S. government's official web portal to all federal, state and local government web resources and services.